Blacksburg, VA

9:57 PM EDT on April 25, 2017 (GMT -0400)
Virginia Tech

Weather History for KBCB - April, 2012

Change the Weather History Date:

Sunday, April 8, 2012

  Actual Average Record
Temperature  
Mean Temperature 50 °F 48 °F  
Max Temperature 66 °F 61 °F 80 °F (2001)
Min Temperature 34 °F 36 °F 18 °F (1982)
Degree Days  
Heating Degree Days 15 17  
Month to date heating degree days 91 141  
Since 1 July heating degree days 3995 4916  
Cooling Degree Days 0 0  
Month to date cooling degree days 0 0  
Year to date cooling degree days 0 0  
Growing Degree Days 2 (Base 50)    
Moisture  
Dew Point 33 °F    
Average Humidity 50    
Maximum Humidity 70    
Minimum Humidity 29    
Precipitation  
Precipitation 0.00 in 0.12 in 2.30 in (1972)
Month to date precipitation 1.07 0.93  
Year to date precipitation 10.52 10.46  
Snow  
Snow 0.00 in - - ()
Month to date snowfall 0.0  
Since 1 July snowfall 10.0  
Snow Depth 0.00 in    
Sea Level Pressure  
Sea Level Pressure 30.10 in    
Wind  
Wind Speed 8 mph (WNW)    
Max Wind Speed 17 mph    
Max Gust Speed 30 mph    
Visibility 10 miles    
Events      
T = Trace of Precipitation, MM = Missing Value Source: NWS Daily Summary

Daily Weather History Graph

Daily Weather History Graph

Search for Another Location

Airport or City:

Trip Planner

Search our weather history database for the weather conditions in past years. The results will help you decide how hot, cold, wet, or windy it might be!

Date:

Astronomy

Apr. 08, 2012 Rise Set
Actual Time 6:56 AM EDT 7:50 PM EDT
Civil Twilight 6:29 AM EDT 8:17 PM EDT
Nautical Twilight 5:58 AM EDT 8:48 PM EDT
Astronomical Twilight 5:25 AM EDT 9:21 PM EDT
Moon 10:31 PM EDT (4/8) 7:55 AM EDT (4/8)
Length of Visible Light 13h 47m
Length of Day
12h 54m
Waning Gibbous, 95% of the Moon is Illuminated
Apr 8
Waning Gibbous
Apr 13
Last Quarter
Apr 21
New
Apr 29
First Quarter
May 5
Full

Hourly Weather History & Observations

Time (EDT) Temp. Windchill Dew Point Humidity Pressure Visibility Wind Dir Wind Speed Gust Speed Precip Events Conditions
12:15 AM 46.4 °F - 28.4 °F 50% 30.19 in 10.0 mi Calm Calm - N/A   Clear
12:55 AM 42.8 °F - 26.6 °F 53% 30.18 in 10.0 mi Calm Calm - N/A   Clear
1:15 AM 39.2 °F - 28.4 °F 65% 30.18 in 10.0 mi Calm Calm - N/A   Clear
1:55 AM 39.2 °F - 26.6 °F 61% 30.18 in 10.0 mi Calm Calm - N/A   Clear
2:15 AM 37.4 °F - 26.6 °F 65% 30.17 in 10.0 mi Calm Calm - N/A   Clear
2:35 AM 37.4 °F - 26.6 °F 65% 30.17 in 10.0 mi Calm Calm - N/A   Clear
2:55 AM 37.4 °F - 28.4 °F 70% 30.16 in 10.0 mi Calm Calm - N/A   Clear
3:15 AM 37.4 °F - 26.6 °F 65% 30.16 in 10.0 mi Calm Calm - N/A   Clear
3:35 AM 39.2 °F - 28.4 °F 65% 30.16 in 10.0 mi Calm Calm - N/A   Clear
3:55 AM 39.2 °F - 28.4 °F 65% 30.16 in 10.0 mi Calm Calm - N/A   Clear
4:15 AM 39.2 °F - 28.4 °F 65% 30.15 in 10.0 mi Calm Calm - N/A   Clear
4:35 AM 41.0 °F - 30.2 °F 65% 30.15 in 10.0 mi Calm Calm - N/A   Clear
4:55 AM 42.8 °F - 32.0 °F 66% 30.15 in 10.0 mi Calm Calm - N/A   Clear
5:15 AM 41.0 °F - 30.2 °F 65% 30.15 in 10.0 mi Calm Calm - N/A   Clear
5:35 AM 42.8 °F - 30.2 °F 61% 30.15 in 10.0 mi Calm Calm - N/A   Clear
5:55 AM 42.8 °F - 30.2 °F 61% 30.16 in 10.0 mi Calm Calm - N/A   Clear
6:15 AM 42.8 °F - 30.2 °F 61% 30.16 in 10.0 mi Calm Calm - N/A   Mostly Cloudy
6:55 AM 42.8 °F 41.1 °F 33.8 °F 70% 30.17 in 10.0 mi West 3.5 mph - N/A   Overcast
7:15 AM 42.8 °F - 32.0 °F 66% 30.17 in 10.0 mi Calm Calm - N/A   Overcast
7:35 AM 44.6 °F 42.2 °F 30.2 °F 57% 30.17 in 10.0 mi West 4.6 mph - N/A   Overcast
7:55 AM 44.6 °F - 33.8 °F 66% 30.18 in 10.0 mi Calm Calm - N/A   Overcast
8:35 AM 48.2 °F - 32.0 °F 54% 30.17 in 10.0 mi NW 3.5 mph - N/A   Mostly Cloudy
8:55 AM 50.0 °F - 32.0 °F 50% 30.16 in 10.0 mi Calm Calm - N/A   Scattered Clouds
9:15 AM 53.6 °F - 30.2 °F 41% 30.16 in 10.0 mi WSW 4.6 mph - N/A   Clear
9:35 AM 55.4 °F - 33.8 °F 44% 30.16 in 10.0 mi West 3.5 mph - N/A   Clear
9:55 AM 57.2 °F - 33.8 °F 41% 30.15 in 10.0 mi West 5.8 mph - N/A   Clear
10:15 AM 59.0 °F - 30.2 °F 34% 30.15 in 10.0 mi West 5.8 mph - N/A   Clear
10:35 AM 60.8 °F - 33.8 °F 36% 30.13 in 10.0 mi West 10.4 mph 16.1 mph N/A   Scattered Clouds
11:35 AM 62.6 °F - 33.8 °F 34% 30.12 in 10.0 mi NW 11.5 mph 21.9 mph N/A   Clear
11:55 AM 62.6 °F - 33.8 °F 34% 30.11 in 10.0 mi West 8.1 mph 17.3 mph N/A   Clear
12:15 PM 64.4 °F - 33.8 °F 32% 30.10 in 10.0 mi West 9.2 mph - N/A   Scattered Clouds
12:35 PM 64.4 °F - 33.8 °F 32% 30.09 in 10.0 mi WNW 9.2 mph - N/A   Scattered Clouds
12:55 PM 66.2 °F - 33.8 °F 30% 30.08 in 10.0 mi West 10.4 mph 18.4 mph N/A   Scattered Clouds
1:15 PM 68.0 °F - 35.6 °F 30% 30.07 in 10.0 mi West 8.1 mph - N/A   Overcast
1:35 PM 66.2 °F - 37.4 °F 35% 30.06 in 10.0 mi WNW 8.1 mph 17.3 mph N/A   Scattered Clouds
1:55 PM 68.0 °F - 37.4 °F 33% 30.05 in 10.0 mi West 10.4 mph 16.1 mph N/A   Scattered Clouds
2:15 PM 66.2 °F - 35.6 °F 32% 30.05 in 10.0 mi West 9.2 mph 17.3 mph N/A   Mostly Cloudy
2:35 PM 66.2 °F - 37.4 °F 35% 30.05 in 10.0 mi NW 16.1 mph 21.9 mph N/A   Overcast
2:55 PM 66.2 °F - 37.4 °F 35% 30.04 in 10.0 mi WNW 12.7 mph 24.2 mph N/A   Overcast
3:15 PM 66.2 °F - 39.2 °F 37% 30.03 in 10.0 mi NW 16.1 mph 23.0 mph N/A   Overcast
3:35 PM 66.2 °F - 41.0 °F 40% 30.02 in 10.0 mi WNW 9.2 mph 21.9 mph N/A   Scattered Clouds
4:15 PM 66.2 °F - 39.2 °F 37% 30.01 in 10.0 mi WNW 8.1 mph 19.6 mph N/A   Clear
4:35 PM 66.2 °F - 37.4 °F 35% 30.02 in 10.0 mi WNW 9.2 mph 27.6 mph N/A   Clear
4:55 PM 66.2 °F - 37.4 °F 35% 30.02 in 10.0 mi WNW 17.3 mph 27.6 mph N/A   Clear
5:15 PM 66.2 °F - 37.4 °F 35% 30.02 in 10.0 mi WNW 16.1 mph 24.2 mph N/A   Clear
5:35 PM 66.2 °F - 37.4 °F 35% 30.01 in 10.0 mi WNW 18.4 mph 25.3 mph N/A   Clear
5:55 PM 66.2 °F - 37.4 °F 35% 30.01 in 10.0 mi WNW 10.4 mph 23.0 mph N/A   Clear
6:15 PM 64.4 °F - 37.4 °F 37% 30.01 in 10.0 mi WNW 17.3 mph 26.5 mph N/A   Clear
6:35 PM 64.4 °F - 37.4 °F 37% 30.02 in 10.0 mi WNW 13.8 mph 24.2 mph N/A   Clear
6:55 PM 64.4 °F - 37.4 °F 37% 30.02 in 10.0 mi West 12.7 mph 23.0 mph N/A   Clear
7:15 PM 62.6 °F - 37.4 °F 39% 30.02 in 10.0 mi WNW 11.5 mph 21.9 mph N/A   Clear
7:35 PM 62.6 °F - 37.4 °F 39% 30.02 in 10.0 mi West 9.2 mph 17.3 mph N/A   Scattered Clouds
7:55 PM 62.6 °F - 37.4 °F 39% 30.02 in 10.0 mi WNW 17.3 mph 24.2 mph N/A   Scattered Clouds
8:15 PM 60.8 °F - 37.4 °F 42% 30.02 in 10.0 mi WNW 10.4 mph 19.6 mph N/A   Scattered Clouds
8:35 PM 60.8 °F - 37.4 °F 42% 30.03 in - WNW 13.8 mph 20.7 mph N/A   Scattered Clouds
8:55 PM 60.8 °F - 35.6 °F 39% 30.03 in 10.0 mi WNW 10.4 mph 18.4 mph N/A   Clear
9:15 PM 59.0 °F - 35.6 °F 42% 30.04 in 10.0 mi NW 19.6 mph 28.8 mph N/A   Clear
9:35 PM 59.0 °F - 35.6 °F 42% 30.04 in 10.0 mi WNW 13.8 mph 20.7 mph N/A   Clear
9:55 PM 57.2 °F - 33.8 °F 41% 30.04 in 10.0 mi WNW 15.0 mph 29.9 mph N/A   Clear
10:35 PM 57.2 °F - 30.2 °F 36% 30.04 in 10.0 mi WNW 11.5 mph 20.7 mph N/A   Clear
10:55 PM 55.4 °F - 30.2 °F 38% 30.05 in 10.0 mi WNW 10.4 mph 19.6 mph N/A   Clear
11:15 PM 55.4 °F - 30.2 °F 38% 30.05 in 10.0 mi NW 11.5 mph - N/A   Clear
11:35 PM 53.6 °F - 30.2 °F 41% 30.05 in 10.0 mi NW 12.7 mph 18.4 mph N/A   Clear
11:55 PM 53.6 °F - 28.4 °F 38% 30.06 in 10.0 mi NW 12.7 mph 17.3 mph N/A   Clear